When you browse on this site, cookies collect data to enhance your experience and personalize the content and advertising you see.
Visit our Privacy Policy to learn more. By continuing to use the site, you agree to this use of cookies and data.
  • In Hungary
  • List of Countries
  • For 7 days
  • Water Temperature
  • Satellite Maps
  • Weather Map
  • News
  • Weather Widgets
  • user-avatar
    Login

    Hourly Weather Quart de Poblet

    Today, 17 January, Thursday

    Time Temperature Precipitation Wind Pressure Humidity
    00:00 +8°C° 0 mm 2 mps 757 mmHg 70%
    01:00 +8°C° 0 mm 3 mps 757 mmHg 68%
    02:00 +8°C° 0 mm 3 mps 757 mmHg 66%
    03:00 +8°C° 0 mm 3 mps 757 mmHg 64%
    04:00 +8°C° 0 mm 3 mps 757 mmHg 63%
    05:00 +8°C° 0 mm 3 mps 757 mmHg 62%
    06:00 +8°C° 0 mm 3 mps 757 mmHg 61%
    07:00 +8°C° 0 mm 3 mps 757 mmHg 59%
    08:00 +9°C° 0 mm 3 mps 757 mmHg 56%
    09:00 +10°C° 0 mm 3 mps 757 mmHg 54%
    10:00 +13°C° 0 mm 2 mps 757 mmHg 50%
    11:00 +14°C° 0 mm 1 mps 757 mmHg 46%
    12:00 +16°C° 0 mm 1 mps 757 mmHg 43%
    13:00 +16°C° 0 mm 1 mps 757 mmHg 44%
    14:00 +16°C° 0 mm 2 mps 757 mmHg 45%
    15:00 +16°C° 0 mm 2 mps 756 mmHg 46%
    16:00 +15°C° 0 mm 2 mps 757 mmHg 54%
    17:00 +13°C° 0 mm 1 mps 757 mmHg 61%
    18:00 +11°C° 0 mm 1 mps 757 mmHg 69%
    19:00 +11°C° 0 mm 1 mps 758 mmHg 66%
    20:00 +10°C° 0 mm 2 mps 758 mmHg 64%
    21:00 +9°C° 0 mm 3 mps 759 mmHg 62%
    22:00 +9°C° 0 mm 3 mps 759 mmHg 62%
    23:00 +8°C° 0 mm 3 mps 759 mmHg 62%

    Tomorrow, 18 January, Friday

    Time Temperature Precipitation Wind Pressure Humidity
    00:00 +7°C° 0 mm 3 mps 759 mmHg 61%
    01:00 +7°C° 0 mm 3 mps 759 mmHg 62%
    02:00 +5°C° 0 mm 3 mps 759 mmHg 62%
    03:00 +5°C° 0 mm 3 mps 759 mmHg 62%
    04:00 +5°C° 0 mm 3 mps 759 mmHg 62%
    05:00 +4°C° 0 mm 3 mps 759 mmHg 61%
    06:00 +4°C° 0 mm 3 mps 759 mmHg 61%
    07:00 +5°C° 0 mm 3 mps 760 mmHg 57%
    08:00 +7°C° 0 mm 3 mps 760 mmHg 54%
    09:00 +8°C° 0 mm 3 mps 760 mmHg 50%
    10:00 +9°C° 0 mm 2 mps 760 mmHg 43%
    11:00 +12°C° 0 mm 2 mps 759 mmHg 36%
    12:00 +14°C° 0 mm 2 mps 759 mmHg 29%
    13:00 +15°C° 0 mm 2 mps 759 mmHg 28%
    14:00 +15°C° 0 mm 2 mps 758 mmHg 27%
    15:00 +15°C° 0 mm 1 mps 758 mmHg 26%
    16:00 +14°C° 0 mm 1 mps 758 mmHg 30%
    17:00 +12°C° 0 mm 1 mps 758 mmHg 35%
    18:00 +9°C° 0 mm 2 mps 759 mmHg 39%
    19:00 +9°C° 0 mm 2 mps 759 mmHg 42%
    20:00 +8°C° 0 mm 3 mps 759 mmHg 44%
    21:00 +7°C° 0 mm 4 mps 759 mmHg 47%
    22:00 +7°C° 0 mm 4 mps 759 mmHg 49%
    23:00 +6°C° 0 mm 4 mps 759 mmHg 51%

    Day after tomorrow, 19 January, Saturday

    Time Temperature Precipitation Wind Pressure Humidity
    00:00 +6°C° 0 mm 4 mps 759 mmHg 53%
    01:00 +6°C° 0 mm 4 mps 759 mmHg 54%
    02:00 +6°C° 0 mm 4 mps 759 mmHg 55%
    03:00 +5°C° 0 mm 4 mps 759 mmHg 56%
    04:00 +5°C° 0 mm 4 mps 759 mmHg 59%
    05:00 +5°C° 0 mm 4 mps 758 mmHg 62%
    06:00 +5°C° 0 mm 4 mps 758 mmHg 64%
    07:00 +6°C° 0 mm 5 mps 758 mmHg 62%
    08:00 +7°C° 0 mm 5 mps 758 mmHg 59%
    09:00 +8°C° 0 mm 5 mps 758 mmHg 57%
    10:00 +10°C° 0 mm 6 mps 758 mmHg 53%
    11:00 +13°C° 0 mm 6 mps 757 mmHg 49%
    12:00 +14°C° 0 mm 6 mps 757 mmHg 46%
    13:00 +14°C° 0.1 mm 6 mps 756 mmHg 51%
    14:00 +13°C° 0.1 mm 6 mps 755 mmHg 57%
    15:00 +13°C° 0.1 mm 6 mps 755 mmHg 62%
    16:00 +11°C° 0.3 mm 6 mps 754 mmHg 65%
    17:00 +12°C° 0.3 mm 5 mps 754 mmHg 68%
    18:00 +10°C° 0.3 mm 5 mps 754 mmHg 71%
    19:00 +11°C° 0.1 mm 6 mps 754 mmHg 72%
    20:00 +11°C° 0.1 mm 6 mps 754 mmHg 72%
    21:00 +11°C° 0.1 mm 6 mps 754 mmHg 73%
    22:00 +10°C° 0 mm 6 mps 754 mmHg 75%
    23:00 +10°C° 0 mm 5 mps 753 mmHg 77%

    20 January, Sunday

    Time Temperature Precipitation Wind Pressure Humidity
    00:00 +9°C° 0 mm 5 mps 753 mmHg 78%
    01:00 +9°C° 0 mm 5 mps 753 mmHg 78%
    02:00 +9°C° 0 mm 5 mps 753 mmHg 79%
    03:00 +9°C° 0 mm 5 mps 753 mmHg 79%
    04:00 +9°C° 0.1 mm 5 mps 753 mmHg 76%
    05:00 +9°C° 0.1 mm 5 mps 753 mmHg 74%
    06:00 +10°C° 0.1 mm 5 mps 753 mmHg 71%
    07:00 +11°C° 0.7 mm 4 mps 754 mmHg 73%
    08:00 +10°C° 0.7 mm 4 mps 754 mmHg 76%
    09:00 +10°C° 0.7 mm 3 mps 755 mmHg 78%
    10:00 +12°C° 0.2 mm 3 mps 755 mmHg 67%
    11:00 +14°C° 0.2 mm 4 mps 755 mmHg 57%
    12:00 +17°C° 0.2 mm 4 mps 755 mmHg 47%
    13:00 +17°C° 0 mm 4 mps 756 mmHg 47%
    14:00 +15°C° 0 mm 4 mps 756 mmHg 48%
    15:00 +15°C° 0 mm 4 mps 756 mmHg 49%
    16:00 +14°C° 0 mm 3 mps 757 mmHg 52%
    17:00 +14°C° 0 mm 2 mps 757 mmHg 55%
    18:00 +12°C° 0 mm 1 mps 758 mmHg 58%
    19:00 +10°C° 0 mm 2 mps 759 mmHg 60%
    20:00 +9°C° 0 mm 2 mps 759 mmHg 61%
    21:00 +8°C° 0 mm 2 mps 760 mmHg 63%
    22:00 +8°C° 0 mm 3 mps 760 mmHg 64%
    23:00 +7°C° 0 mm 3 mps 761 mmHg 65%

    21 January, Monday

    Time Temperature Precipitation Wind Pressure Humidity
    00:00 +7°C° 0 mm 3 mps 761 mmHg 65%
    01:00 +7°C° 0 mm 3 mps 761 mmHg 66%
    02:00 +5°C° 0 mm 3 mps 761 mmHg 67%
    03:00 +5°C° 0 mm 3 mps 761 mmHg 68%
    04:00 +5°C° 0 mm 3 mps 761 mmHg 69%
    05:00 +5°C° 0 mm 3 mps 761 mmHg 71%
    06:00 +6°C° 0 mm 2 mps 761 mmHg 72%
    07:00 +7°C° 0 mm 2 mps 762 mmHg 67%
    08:00 +8°C° 0 mm 3 mps 762 mmHg 63%
    09:00 +9°C° 0 mm 3 mps 763 mmHg 59%
    10:00 +11°C° 0 mm 3 mps 762 mmHg 51%
    11:00 +14°C° 0 mm 2 mps 762 mmHg 43%
    12:00 +15°C° 0 mm 2 mps 762 mmHg 36%
    13:00 +15°C° 0 mm 2 mps 762 mmHg 36%
    14:00 +16°C° 0 mm 2 mps 761 mmHg 35%
    15:00 +16°C° 0 mm 2 mps 761 mmHg 35%
    16:00 +14°C° 0 mm 2 mps 761 mmHg 40%
    17:00 +13°C° 0 mm 2 mps 761 mmHg 45%
    18:00 +10°C° 0 mm 2 mps 762 mmHg 50%
    19:00 +9°C° 0 mm 3 mps 762 mmHg 53%
    20:00 +8°C° 0 mm 3 mps 762 mmHg 56%
    21:00 +6°C° 0 mm 4 mps 763 mmHg 58%
    22:00 +6°C° 0 mm 4 mps 762 mmHg 60%
    23:00 +5°C° 0 mm 4 mps 762 mmHg 63%

    22 January, Tuesday

    Time Temperature Precipitation Wind Pressure Humidity
    00:00 +5°C° 0 mm 4 mps 762 mmHg 65%
    01:00 +4°C° 0 mm 4 mps 762 mmHg 66%
    02:00 +4°C° 0 mm 3 mps 761 mmHg 68%
    03:00 +3°C° 0 mm 3 mps 761 mmHg 69%
    04:00 +4°C° 0 mm 4 mps 760 mmHg 67%
    05:00 +4°C° 0 mm 4 mps 760 mmHg 65%
    06:00 +4°C° 0 mm 4 mps 759 mmHg 63%
    07:00 +5°C° 0 mm 5 mps 759 mmHg 58%
    08:00 +5°C° 0 mm 6 mps 758 mmHg 54%
    09:00 +8°C° 0 mm 7 mps 758 mmHg 50%
    10:00 +9°C° 0 mm 8 mps 757 mmHg 47%
    11:00 +10°C° 0 mm 9 mps 756 mmHg 43%
    12:00 +11°C° 0 mm 10 mps 755 mmHg 40%
    13:00 +11°C° 0.1 mm 10 mps 754 mmHg 42%
    14:00 +11°C° 0.1 mm 9 mps 753 mmHg 43%
    15:00 +11°C° 0.1 mm 9 mps 751 mmHg 45%
    16:00 +11°C° 0 mm 9 mps 751 mmHg 49%
    17:00 +10°C° 0 mm 8 mps 750 mmHg 53%
    18:00 +9°C° 0 mm 8 mps 750 mmHg 57%
    19:00 +9°C° 0 mm 8 mps 749 mmHg 56%
    20:00 +8°C° 0 mm 7 mps 749 mmHg 56%
    21:00 +8°C° 0 mm 6 mps 749 mmHg 55%
    22:00 +6°C° 0 mm 7 mps 749 mmHg 54%
    23:00 +6°C° 0 mm 7 mps 748 mmHg 52%
    Show more